CW4713 Weather Reports


Display with metric or nautical units.
time (UTC)temp
F
wind
direction
speed
MPH
gust
MPH
rain 1hr
in
rain 24hr
in
rain mn
in
humidity
%
barometer
mb
20260906000304 66 232 2.0 14.0 0.00 0.05 0.05 62 1016.6
20260905235803 66 216 7.0 16.0 0.00 0.05 0.05 62 1016.6
20260905235306 66 222 9.0 16.0 0.00 0.05 0.05 62 1016.7
20260905234805 66 230 4.0 10.0 0.00 0.05 0.05 62 1016.7
20260905234304 66 228 6.0 13.0 0.00 0.05 0.05 62 1016.7
20260905233804 66 211 2.0 13.0 0.00 0.05 0.05 62 1016.7
20260905233304 66 214 9.0 14.0 0.00 0.05 0.05 62 1016.7
20260905232804 66 287 5.0 12.0 0.00 0.05 0.05 63 1016.7
20260905232306 66 236 8.0 15.0 0.00 0.05 0.05 62 1016.7
20260905231805 66 222 5.0 9.0 0.00 0.05 0.05 63 1016.7
20260905231305 66 273 2.0 12.0 0.00 0.05 0.05 63 1016.6
20260905230804 66 227 7.0 14.0 0.00 0.05 0.05 63 1016.6
20260905230304 66 214 3.0 16.0 0.00 0.05 0.05 63 1016.6
20260905225805 66 246 7.0 15.0 0.00 0.05 0.05 63 1016.6
20260905225306 66 231 5.0 15.0 0.00 0.05 0.05 63 1016.6
20260905224804 66 220 5.0 14.0 0.00 0.05 0.05 63 1016.5
20260905224304 66 203 9.0 15.0 0.00 0.05 0.05 64 1016.6
20260905223804 65 210 6.0 16.0 0.00 0.05 0.05 64 1016.6
20260905223304 65 245 8.0 18.0 0.00 0.05 0.05 64 1016.6
20260905222805 65 219 12.0 17.0 0.00 0.05 0.05 64 1016.7
20260905222306 65 215 10.0 20.0 0.00 0.05 0.05 65 1016.8
20260905221804 65 244 8.0 17.0 0.00 0.05 0.05 66 1016.8
20260905221304 65 221 6.0 17.0 0.00 0.05 0.05 66 1016.7
20260905220804 64 208 10.0 21.0 0.00 0.05 0.05 66 1016.7
20260905220304 64 271 6.0 16.0 0.00 0.05 0.05 67 1016.7
20260905215805 64 223 9.0 16.0 0.00 0.05 0.05 67 1016.7
20260905215306 64 252 5.0 18.0 0.00 0.05 0.05 67 1016.6
20260905214804 65 222 7.0 17.0 0.00 0.05 0.05 67 1016.6
20260905214305 65 222 7.0 17.0 0.00 0.05 0.05 67 1016.5
20260905213804 65 219 9.0 17.0 0.00 0.05 0.05 68 1016.5
20260905213304 65 245 7.0 16.0 0.00 0.05 0.05 68 1016.5
20260905212803 64 243 7.0 17.0 0.00 0.05 0.05 68 1016.5
20260905212306 64 220 5.0 12.0 0.00 0.05 0.05 70 1016.3
20260905211804 64 240 6.0 16.0 0.00 0.05 0.05 70 1016.4
20260905211304 64 230 6.0 14.0 0.00 0.05 0.05 72 1016.4
20260905210804 64 231 6.0 12.0 0.00 0.05 0.05 72 1016.4
20260905210304 63 225 6.0 12.0 0.00 0.05 0.05 73 1016.3
20260905205804 63 229 5.0 8.0 0.00 0.05 0.05 73 1016.3
20260905205306 63 241 6.0 10.0 0.00 0.05 0.05 74 1016.3
20260905204804 63 242 5.0 14.0 0.00 0.05 0.05 74 1016.3
20260905204304 62 220 6.0 10.0 0.00 0.05 0.05 75 1016.3
20260905203804 62 231 5.0 9.0 0.00 0.05 0.05 75 1016.2
20260905203304 62 218 5.0 12.0 0.00 0.05 0.05 76 1016.1
20260905192804 60 207 3.0 9.0 0.00 0.05 0.05 87 1015.9
20260905182804 58 270 0.0 0.0 0.00 0.05 0.05 95 1015.7
20260905182306 58 270 0.0 1.0 0.00 0.05 0.05 95 1015.6
20260905181803 58 313 0.0 1.0 0.00 0.05 0.05 95 1015.6
20260905181304 58 222 0.0 1.0 0.00 0.05 0.05 95 1015.5
20260905180803 57 189 0.0 0.0 0.00 0.05 0.05 95 1015.4
20260905180304 57 189 0.0 0.0 0.00 0.05 0.05 95 1015.3
20260905175804 57 189 0.0 1.0 0.00 0.05 0.05 95 1015.3
20260905175306 57 35 0.0 1.0 0.00 0.05 0.05 95 1015.2
20260905174804 57 47 0.0 0.0 0.00 0.05 0.05 95 1015.2
20260905174304 57 47 0.0 0.0 0.00 0.05 0.05 95 1015.1
20260905173804 56 47 1.0 2.0 0.00 0.05 0.05 95 1015.1
20260905173304 56 142 3.0 6.0 0.00 0.05 0.05 95 1015.1
20260905172804 56 113 0.0 0.0 0.00 0.05 0.05 95 1015.1
20260905172305 56 113 0.0 0.0 0.00 0.05 0.05 95 1015.1
20260905161804 54 113 0.0 0.0 0.00 0.05 0.05 95 1015.2
20260905161304 54 113 0.0 1.0 0.00 0.05 0.05 95 1015.2
20260905160804 54 169 2.0 5.0 0.00 0.05 0.05 95 1015.2
20260905160304 54 161 2.0 3.0 0.00 0.05 0.05 95 1015.2
20260905155805 54 107 1.0 2.0 0.00 0.05 0.05 95 1015.1
20260905155306 54 38 0.0 5.0 0.00 0.05 0.05 94 1015.1
20260905154804 54 165 0.0 3.0 0.00 0.05 0.05 94 1015.1
20260905154304 54 34 1.0 2.0 0.00 0.05 0.05 94 1015.1
20260905153804 54 112 0.0 2.0 0.00 0.05 0.05 94 1015.2
20260905153303 54 30 0.0 2.0 0.00 0.05 0.05 94 1015.1
20260905152804 54 42 0.0 3.0 0.00 0.05 0.05 94 1015.1
20260905152306 54 185 0.0 0.0 0.00 0.05 0.05 94 1015.2
20260905151804 54 185 0.0 3.0 0.00 0.05 0.05 94 1015.2
20260905151304 54 83 0.0 3.0 0.00 0.05 0.05 94 1015.3
20260905140804 54 66 0.0 0.0 0.00 0.05 0.05 94 1014.9
20260905140304 54 66 0.0 0.0 0.00 0.05 0.05 94 1014.7
20260905135804 55 66 0.0 0.0 0.00 0.05 0.05 94 1014.8
20260905135306 55 66 0.0 2.0 0.00 0.05 0.05 93 1014.8
20260905134804 55 70 2.0 6.0 0.00 0.05 0.05 93 1014.7
20260905134304 55 88 0.0 3.0 0.00 0.05 0.05 93 1014.7
20260905133804 55 104 0.0 1.0 0.00 0.05 0.05 93 1014.7
20260905133305 55 152 1.0 5.0 0.00 0.05 0.05 93 1014.6
20260905132804 55 241 0.0 2.0 0.00 0.05 0.05 93 1014.5
20260905132306 55 217 0.0 2.0 0.00 0.05 0.05 93 1014.6
20260905131805 55 195 0.0 0.0 0.00 0.05 0.05 93 1014.5
20260905131304 55 206 1.0 2.0 0.00 0.05 0.05 93 1014.4
20260905130804 55 248 0.0 0.0 0.00 0.05 0.05 92 1014.3
20260905130305 55 248 0.0 0.0 0.01 0.05 0.05 92 1014.2
20260905125804 55 248 0.0 0.0 0.01 0.05 0.05 92 1014.1
20260905125306 55 248 0.0 0.0 0.01 0.05 0.05 92 1014.0
20260905124804 55 248 1.0 2.0 0.01 0.05 0.05 92 1014.0
20260905124304 55 355 3.0 6.0 0.01 0.05 0.05 92 1013.9
20260905123804 55 2 4.0 6.0 0.01 0.05 0.05 92 1014.0
20260905123305 55 45 0.0 0.0 0.01 0.05 0.05 92 1014.1
20260905122805 55 42 2.0 5.0 0.02 0.05 0.05 92 1014.1
20260905122306 55 158 2.0 3.0 0.03 0.05 0.05 92 1014.2
20260905121805 55 356 1.0 2.0 0.04 0.05 0.05 92 1014.2
20260905121304 55 185 1.0 3.0 0.05 0.05 0.05 92 1014.3
20260905120805 55 160 1.0 2.0 0.05 0.05 0.05 92 1014.3
20260905120305 55 165 3.0 7.0 0.04 0.04 0.04 92 1014.4
20260905115804 55 343 5.0 7.0 0.04 0.04 0.04 92 1014.1
20260905115306 55 10 3.0 8.0 0.04 0.04 0.04 92 1014.2
20260905114804 55 45 3.0 7.0 0.04 0.04 0.04 91 1014.3
20260905114305 55 50 2.0 8.0 0.04 0.04 0.04 91 1014.4
20260905113804 55 61 2.0 5.0 0.04 0.04 0.04 90 1014.3
20260905113305 55 341 2.0 5.0 0.04 0.04 0.04 90 1014.5
20260905112804 55 310 2.0 7.0 0.03 0.03 0.03 90 1014.4
20260905112306 55 279 0.0 1.0 0.02 0.02 0.02 90 1014.4
20260905111805 55 284 1.0 2.0 0.01 0.01 0.01 90 1014.3
20260905111304 54 282 1.0 2.0 0.00 0.00 0.00 90 1014.2
20260905110804 54 268 0.0 2.0 0.00 0.00 0.00 90 1013.9
20260905110304 54 289 1.0 3.0 0.00 0.00 0.00 90 1013.8
20260905105804 54 182 1.0 3.0 0.00 0.00 0.00 89 1013.7
20260905084803 55 209 1.0 3.0 0.00 0.00 0.00 86 1014.5
20260905084304 55 85 1.0 2.0 0.00 0.00 0.00 85 1014.5
20260905083803 55 202 1.0 2.0 0.00 0.00 0.00 85 1014.7
20260905083304 55 340 0.0 1.0 0.00 0.00 0.00 85 1014.7
20260905082805 55 351 1.0 2.0 0.00 0.00 0.00 85 1014.8
20260905082307 55 42 2.0 3.0 0.00 0.00 0.00 84 1014.8
20260905081804 56 7 1.0 2.0 0.00 0.00 0.00 84 1015.0
20260905081304 56 100 0.0 0.0 0.00 0.00 0.00 84 1015.1
20260905080804 56 100 0.0 2.0 0.00 0.00 0.00 84 1015.3
20260905080304 56 204 0.0 2.0 0.00 0.00 0.00 83 1015.3
20260905075804 56 206 0.0 0.0 0.00 0.00 0.00 83 1015.5
20260905075306 56 206 0.0 0.0 0.00 0.00 0.00 83 1015.6
20260905074804 56 206 0.0 0.0 0.00 0.00 0.00 82 1015.6
20260905074304 56 206 0.0 0.0 0.00 0.00 0.00 82 1015.7
20260905063307 57 221 2.0 3.0 0.00 0.00 0.00 78 1016.1
20260905062807 57 228 2.0 3.0 0.00 0.00 0.00 77 1016.0
20260905062306 58 227 1.0 3.0 0.00 0.00 0.00 77 1015.9
20260905061805 58 230 2.0 5.0 0.00 0.00 0.00 76 1015.9
20260905061306 58 228 2.0 3.0 0.00 0.00 0.00 76 1015.9
20260905060805 58 229 0.0 0.0 0.00 0.00 0.00 75 1015.8
20260905060305 59 229 0.0 0.0 0.00 0.00 0.00 75 1015.7
20260905055804 59 229 0.0 0.0 0.00 0.00 0.00 75 1015.7
20260905055306 59 229 0.0 0.0 0.00 0.00 0.00 74 1015.7
20260905054804 59 229 0.0 0.0 0.00 0.00 0.00 74 1015.8
20260905054304 59 229 0.0 2.0 0.00 0.00 0.00 74 1015.9
20260905053804 59 267 0.0 1.0 0.00 0.00 0.00 74 1016.0
20260905053305 59 308 0.0 0.0 0.00 0.00 0.00 74 1016.0
20260905052804 59 308 0.0 2.0 0.00 0.00 0.00 74 1016.1
20260905052306 59 258 1.0 5.0 0.00 0.00 0.00 74 1016.1
20260905051804 59 206 2.0 3.0 0.00 0.00 0.00 74 1016.0
20260905051303 60 207 0.0 2.0 0.00 0.00 0.00 74 1016.0
20260905050804 60 220 2.0 2.0 0.00 0.00 0.00 74 1016.1
20260905050304 60 232 1.0 3.0 0.00 0.00 0.00 74 1016.1
20260905045804 60 164 0.0 0.0 0.00 0.00 0.00 73 1016.1
20260905045305 60 164 0.0 0.0 0.00 0.00 0.00 72 1016.1
20260905044804 60 164 0.0 0.0 0.00 0.00 0.00 72 1016.1
20260905044304 60 164 1.0 3.0 0.00 0.00 0.00 72 1016.1
20260905043804 60 180 1.0 2.0 0.00 0.00 0.00 72 1016.2
20260905043304 60 217 1.0 2.0 0.00 0.00 0.00 72 1016.2
20260905042804 60 170 0.0 3.0 0.00 0.00 0.00 72 1016.2
20260905042306 60 331 1.0 3.0 0.00 0.00 0.00 72 1016.2
20260905041803 61 323 0.0 1.0 0.00 0.00 0.00 72 1016.3
20260905041304 61 325 0.0 1.0 0.00 0.00 0.00 73 1016.3
20260905040804 61 341 2.0 5.0 0.00 0.00 0.00 74 1016.2
20260905040304 61 10 2.0 5.0 0.00 0.00 0.00 74 1016.2
20260905035804 61 348 2.0 3.0 0.00 0.00 0.00 73 1016.4
20260905035306 61 0 2.0 5.0 0.00 0.00 0.00 73 1016.5
20260905034804 61 41 2.0 5.0 0.00 0.00 0.00 73 1016.7
20260905034304 61 349 1.0 3.0 0.00 0.00 0.00 73 1016.7
20260905033804 61 267 0.0 1.0 0.00 0.00 0.00 72 1016.8
20260905033304 61 333 2.0 5.0 0.00 0.00 0.00 72 1016.8
20260905032804 62 30 2.0 3.0 0.00 0.00 0.00 72 1016.9
20260905032306 62 45 0.0 3.0 0.00 0.00 0.00 71 1017.0
20260905031804 62 189 2.0 5.0 0.00 0.00 0.00 71 1017.0
20260905031304 62 18 3.0 5.0 0.00 0.00 0.00 70 1017.0
20260905030804 62 47 2.0 2.0 0.00 0.00 0.00 70 1017.1
20260905030303 62 62 0.0 0.0 0.00 0.00 0.00 70 1017.2
20260905025804 62 70 1.0 5.0 0.00 0.00 0.00 70 1017.1
20260905025306 62 11 3.0 5.0 0.00 0.00 0.00 69 1017.1
20260905024804 62 155 0.0 3.0 0.00 0.00 0.00 69 1017.3
20260905024304 62 343 2.0 2.0 0.00 0.00 0.00 69 1017.3
20260905023804 62 25 2.0 3.0 0.00 0.00 0.00 68 1017.2
20260905023304 62 2 2.0 3.0 0.00 0.00 0.00 68 1017.2
20260905022803 62 1 1.0 5.0 0.00 0.00 0.00 68 1017.3
20260905022306 63 17 3.0 5.0 0.00 0.00 0.00 67 1017.4
20260905021803 63 2 2.0 3.0 0.00 0.00 0.00 67 1017.5
20260905021304 63 20 1.0 3.0 0.00 0.00 0.00 67 1017.6
20260905020804 63 7 2.0 3.0 0.00 0.00 0.00 66 1017.6
20260905020304 63 56 0.0 2.0 0.00 0.00 0.00 66 1017.8
20260905015804 63 3 1.0 2.0 0.00 0.00 0.00 66 1017.9
20260905015306 63 337 1.0 2.0 0.00 0.00 0.00 66 1018.0
20260905014804 63 296 0.0 3.0 0.00 0.00 0.00 66 1018.0
20260905014304 63 326 2.0 3.0 0.00 0.00 0.00 66 1017.9
20260905013804 63 3 1.0 5.0 0.00 0.00 0.00 66 1018.0
20260905013304 63 288 1.0 3.0 0.00 0.00 0.00 66 1018.0
20260905012804 63 335 2.0 7.0 0.00 0.00 0.00 65 1018.0
20260905012306 63 6 5.0 8.0 0.00 0.00 0.00 65 1018.0
20260905011804 63 355 2.0 5.0 0.00 0.00 0.00 65 1017.9
20260905011304 63 9 3.0 7.0 0.00 0.00 0.00 65 1018.0
20260905010804 63 8 3.0 5.0 0.00 0.00 0.00 65 1018.0
20260905010304 63 23 3.0 5.0 0.00 0.00 0.00 66 1018.1
20260905005804 63 354 3.0 5.0 0.00 0.00 0.00 66 1018.1
20260905005306 63 3 4.0 7.0 0.00 0.00 0.00 66 1018.1
20260905004804 63 21 3.0 5.0 0.00 0.00 0.00 66 1018.2
20260905004304 63 50 2.0 5.0 0.00 0.00 0.00 66 1018.2
20260905003804 63 8 2.0 5.0 0.00 0.00 0.00 66 1018.2
20260905003304 63 327 2.0 5.0 0.00 0.00 0.00 66 1018.3
20260905002804 63 1 4.0 7.0 0.00 0.00 0.00 66 1018.5
20260905002306 63 330 3.0 5.0 0.00 0.00 0.00 66 1018.6
20260905001806 63 16 3.0 6.0 0.00 0.00 0.00 66 1018.7
20260905001305 63 23 3.0 5.0 0.00 0.00 0.00 66 1018.7
20260905000804 63 30 1.0 7.0 0.00 0.00 0.00 67 1018.8